Weather History for KJFZ - September, 2012

Change the Weather History Date:

Thursday, September 27, 2012

  Actual Average (KBLF) Record (KBLF)
Temperature  
Mean Temperature 65 °F 62 °F  
Max Temperature 75 °F 71 °F 83 °F (2007)
Min Temperature 55 °F 53 °F 37 °F (1991)
Degree Days  
Heating Degree Days 0 5  
Month to date heating degree days 58  
Since 1 July heating degree days 64  
Cooling Degree Days 0 2  
Month to date cooling degree days 95  
Year to date cooling degree days 829  
Growing Degree Days 15 (Base 50)    
Moisture  
Dew Point 61 °F    
Average Humidity 86    
Maximum Humidity 100    
Minimum Humidity 65    
Precipitation  
Precipitation 0.00 in 0.11 in 1.49 in (1976)
Month to date precipitation 2.82  
Year to date precipitation 31.21  
Snow  
Snow 0.00 in - - ()
Month to date snowfall  
Since 1 July snowfall  
Since 1 September snowfall  
Snow Depth -    
Sea Level Pressure  
Sea Level Pressure 30.23 in    
Wind  
Wind Speed 2 mph (SW)    
Max Wind Speed 8 mph    
Max Gust Speed -    
Visibility 10 miles    
Events      
T = Trace of Precipitation, MM = Missing Value Source: NWS Daily Summary

Daily Weather History Graph

Daily Weather History Graph

Search for Another Location

Airport or City:

Trip Planner

Search our weather history database for the weather conditions in past years. The results will help you decide how hot, cold, wet, or windy it might be!

Date:

Astronomy

Sep. 27, 2012 Rise Set
Actual Time 7:19 AM EDT 7:15 PM EDT
Civil Twilight 6:53 AM EDT 7:41 PM EDT
Nautical Twilight 6:23 AM EDT 8:11 PM EDT
Astronomical Twilight 5:52 AM EDT 8:42 PM EDT
Moon 5:44 PM EDT (9/27) 4:49 AM EDT (9/27)
Length of Visible Light 12h 47m
Length of Day
11h 56m
Waxing Gibbous, 94% of the Moon is Illuminated
Sep 27
Waxing Gibbous
Sep 29
Full
Oct 8
Last Quarter
Oct 15
New
Oct 21
First Quarter

Hourly Weather History & Observations

Time (EDT) Temp. Dew Point Humidity Pressure Visibility Wind Dir Wind Speed Gust Speed Precip Events Conditions
12:55 AM 64.4 °F 55.4 °F 73% 30.25 in 10.0 mi Calm Calm - N/A   Clear
1:15 AM 62.6 °F 57.2 °F 82% 30.25 in 10.0 mi South 3.5 mph - N/A   Clear
1:35 AM 62.6 °F 57.2 °F 82% 30.24 in 10.0 mi SSE 3.5 mph - N/A   Clear
1:55 AM 62.6 °F 57.2 °F 82% 30.24 in 10.0 mi Calm Calm - N/A   Clear
2:15 AM 62.6 °F 57.2 °F 82% 30.23 in 10.0 mi SSE 3.5 mph - N/A   Clear
2:35 AM 62.6 °F 57.2 °F 82% 30.23 in 10.0 mi SSE 3.5 mph - N/A   Clear
2:55 AM 60.8 °F 57.2 °F 88% 30.23 in 10.0 mi Calm Calm - N/A   Clear
3:15 AM 59.0 °F 57.2 °F 94% 30.23 in 10.0 mi Calm Calm - N/A   Clear
3:35 AM 60.8 °F 57.2 °F 88% 30.22 in 10.0 mi Calm Calm - N/A   Clear
3:55 AM 60.8 °F 57.2 °F 88% 30.22 in 10.0 mi Calm Calm - N/A   Clear
4:15 AM 60.8 °F 57.2 °F 88% 30.22 in 10.0 mi Calm Calm - N/A   Clear
4:35 AM 60.8 °F 57.2 °F 88% 30.22 in 10.0 mi West 3.5 mph - N/A   Clear
4:55 AM 60.8 °F 57.2 °F 88% 30.22 in 10.0 mi Calm Calm - N/A   Clear
5:15 AM 55.4 °F 55.4 °F 100% 30.22 in 10.0 mi Calm Calm - N/A   Clear
5:35 AM 55.4 °F 55.4 °F 100% 30.23 in 10.0 mi Calm Calm - N/A   Clear
6:15 AM 57.2 °F 57.2 °F 100% 30.24 in 10.0 mi Calm Calm - N/A   Partly Cloudy
6:35 AM 57.2 °F 57.2 °F 100% 30.25 in 10.0 mi Calm Calm - N/A   Mostly Cloudy
6:55 AM 57.2 °F 57.2 °F 100% 30.25 in 10.0 mi Calm Calm - N/A   Mostly Cloudy
7:15 AM 57.2 °F 57.2 °F 100% 30.25 in 10.0 mi Calm Calm - N/A   Overcast
7:35 AM 57.2 °F 57.2 °F 100% 30.26 in 10.0 mi Calm Calm - N/A   Scattered Clouds
7:55 AM 60.8 °F 59.0 °F 94% 30.26 in 10.0 mi Calm Calm - N/A   Clear
8:15 AM 59.0 °F 59.0 °F 100% 30.26 in 10.0 mi Calm Calm - N/A   Clear
8:35 AM 62.6 °F 60.8 °F 94% 30.26 in 10.0 mi Calm Calm - N/A   Partly Cloudy
8:55 AM 62.6 °F 60.8 °F 94% 30.27 in 10.0 mi Calm Calm - N/A   Clear
9:15 AM 64.4 °F 60.8 °F 88% 30.26 in 10.0 mi Calm Calm - N/A   Partly Cloudy
9:35 AM 64.4 °F 60.8 °F 88% 30.27 in 10.0 mi Calm Calm - N/A   Partly Cloudy
9:55 AM 66.2 °F 60.8 °F 83% 30.27 in 10.0 mi Variable 3.5 mph - N/A   Clear
10:15 AM 68.0 °F 60.8 °F 78% 30.27 in 10.0 mi Calm Calm - N/A   Clear
10:35 AM 69.8 °F 60.8 °F 73% 30.27 in 10.0 mi SW 4.6 mph - N/A   Clear
10:55 AM 69.8 °F 62.6 °F 78% 30.27 in 10.0 mi Variable 3.5 mph - N/A   Clear
11:15 AM 71.6 °F 60.8 °F 69% 30.27 in 10.0 mi Variable 5.8 mph - N/A   Clear
11:35 AM 69.8 °F 60.8 °F 73% 30.27 in 10.0 mi Variable 3.5 mph - N/A   Clear
11:55 AM 71.6 °F 60.8 °F 69% 30.27 in 10.0 mi Variable 4.6 mph - N/A   Partly Cloudy
12:15 PM 71.6 °F 60.8 °F 69% 30.27 in 10.0 mi Variable 4.6 mph - N/A   Partly Cloudy
12:35 PM 71.6 °F 60.8 °F 69% 30.26 in 10.0 mi Variable 5.8 mph - N/A   Scattered Clouds
12:55 PM 71.6 °F 62.6 °F 73% 30.26 in 10.0 mi West 5.8 mph - N/A   Mostly Cloudy
1:15 PM 71.6 °F 62.6 °F 73% 30.25 in 10.0 mi WSW 3.5 mph - N/A   Mostly Cloudy
1:35 PM 71.6 °F 62.6 °F 73% 30.24 in 10.0 mi West 3.5 mph - N/A   Scattered Clouds
1:55 PM 73.4 °F 62.6 °F 69% 30.23 in 10.0 mi Variable 4.6 mph - N/A   Partly Cloudy
2:15 PM 71.6 °F 62.6 °F 73% 30.23 in 10.0 mi West 8.1 mph - N/A   Partly Cloudy
2:35 PM 73.4 °F 60.8 °F 65% 30.21 in 10.0 mi West 6.9 mph - N/A   Clear
2:55 PM 73.4 °F 62.6 °F 69% 30.21 in 10.0 mi Variable 3.5 mph - N/A   Clear
3:15 PM 75.2 °F 62.6 °F 65% 30.20 in 10.0 mi Variable 4.6 mph - N/A   Scattered Clouds
3:35 PM 75.2 °F 62.6 °F 65% 30.20 in 10.0 mi Variable 4.6 mph - N/A   Partly Cloudy
3:55 PM 73.4 °F 62.6 °F 69% 30.20 in 10.0 mi West 4.6 mph - N/A   Scattered Clouds
4:15 PM 73.4 °F 62.6 °F 69% 30.20 in 10.0 mi Calm Calm - N/A   Scattered Clouds
4:35 PM 73.4 °F 62.6 °F 69% 30.19 in 10.0 mi Variable 5.8 mph - N/A   Partly Cloudy
4:55 PM 71.6 °F 62.6 °F 73% 30.19 in 10.0 mi Calm Calm - N/A   Partly Cloudy
5:15 PM 73.4 °F 62.6 °F 69% 30.19 in 10.0 mi Calm Calm - N/A   Partly Cloudy
5:35 PM 71.6 °F 62.6 °F 73% 30.19 in 10.0 mi Variable 4.6 mph - N/A   Partly Cloudy
5:55 PM 71.6 °F 62.6 °F 73% 30.20 in 10.0 mi West 3.5 mph - N/A   Mostly Cloudy
6:15 PM 68.0 °F 64.4 °F 88% 30.20 in 10.0 mi West 4.6 mph - N/A   Scattered Clouds
6:35 PM 66.2 °F 64.4 °F 94% 30.19 in 10.0 mi Calm Calm - N/A   Clear
6:55 PM 66.2 °F 64.4 °F 94% 30.20 in 10.0 mi WNW 4.6 mph - N/A   Clear
7:15 PM 64.4 °F 64.4 °F 100% 30.20 in 10.0 mi Calm Calm - N/A   Partly Cloudy
7:35 PM 64.4 °F 64.4 °F 100% 30.20 in 10.0 mi Calm Calm - N/A   Mostly Cloudy
7:55 PM 62.6 °F 62.6 °F 100% 30.19 in 10.0 mi SSE 3.5 mph - N/A   Mostly Cloudy
8:15 PM 62.6 °F 62.6 °F 100% 30.19 in 10.0 mi Calm Calm - N/A   Scattered Clouds
8:35 PM 62.6 °F 62.6 °F 100% 30.20 in 10.0 mi South 3.5 mph - N/A   Partly Cloudy
8:55 PM 62.6 °F 62.6 °F 100% 30.20 in 9.0 mi SE 3.5 mph - N/A   Clear
9:15 PM 62.6 °F 62.6 °F 100% 30.20 in 9.0 mi SSE 3.5 mph - N/A   Clear
9:35 PM 62.6 °F 62.6 °F 100% 30.20 in 10.0 mi Calm Calm - N/A   Clear
9:55 PM 62.6 °F 62.6 °F 100% 30.20 in 10.0 mi Calm Calm - N/A   Clear
10:15 PM 62.6 °F 62.6 °F 100% 30.20 in 10.0 mi Calm Calm - N/A   Clear
10:35 PM 62.6 °F 62.6 °F 100% 30.19 in 10.0 mi Calm Calm - N/A   Clear
10:55 PM 62.6 °F 62.6 °F 100% 30.19 in 10.0 mi Calm Calm - N/A   Clear
11:15 PM 62.6 °F 62.6 °F 100% 30.19 in 10.0 mi Calm Calm - N/A   Partly Cloudy
11:35 PM 62.6 °F 62.6 °F 100% 30.19 in 10.0 mi Calm Calm - N/A   Mostly Cloudy
11:55 PM 62.6 °F 62.6 °F 100% 30.20 in 10.0 mi Calm Calm - N/A   Mostly Cloudy